Content
SEND FEEDBACK

Daily
Averages
Monthly
Summary
United States of America

PYGA BEACH, GUAM


Home > North America > United States > Guam
Elevation: 6 meters     Latitude: 13 17N     Longitude: 144 39E

WEATHER
 
SELECT A DAY
Number of Records: 341,524;   Date Range: 1/1/95 - 7/7/14
 
SHARE

PRINT THIS DATA

[ ← Previous Day ]
WEATHER ALMANAC - 25 OCTOBER, 2013
[ Next Day → ]
[ °F ]   °C
Weather ElementAverageHighLow
Temperature26.9 °C30 °C (11:53 am)23.8 °C (11:58 pm)
Dewpoint23.7 °C25.3 °C (12:58 pm)2 °C (8:58 pm)
Humidity83.7 %98 % (1:58 am)23 % (8:58 pm)
Barometer1009.5 hPa1011.2 hPa (9:03 am)1006.4 hPa (1:58 am)
Wind Speed8.2 km/h13 km/h (8:58 am)
Weather ElementAverage
Visibility15.8 km
Wind DirectionS (177.6 °)

Weather ElementTotal
Precipitation2.79 mm
Cooling Degree Days8.6 (Base 18.3)
Growing Degree Days16.9 (Base 10)
Averaged from 58 records on 25 October, 2013
WEATHER CONDITIONS BREAKOUT
WIND DIRECTION BREAKOUT
WEATHER BY HOUR - 25 OCTOBER, 2013
[ °F ]   °C
Local TimeTemperatureDewpointHumidityBarometerVisibilityWind DirectionWind SpeedGust SpeedPrecipitationEventsConditions
1:06 AM26 °C24 °C89 %1007.8 hPa16.1 kmWSW (250°)9.3 km/hRainLight Rain
1:15 AM26 °C24 °C89 %1007.8 hPa16.1 kmWSW (240°)9.3 km/hPartly Cloudy
1:58 AM24.6 °C24.3 °C98 %1006.4 hPa16.1 kmWSW (250°)9.3 km/h0 mmClear
2:58 AM24.6 °C24.3 °C98 %1006.4 hPa16.1 kmWest (260°)7.4 km/hClear
3:58 AM24.2 °C23.8 °C98 %1006.4 hPa16.1 kmWSW (250°)5.6 km/hClear
4:58 AM24.9 °C24.6 °C98 %1006.8 hPa16.1 kmWest (260°)11.1 km/hMostly Cloudy
5:58 AM24.8 °C24.3 °C97 %1007.5 hPa16.1 kmWest (280°)5.6 km/hClear
6:58 AM25 °C24.7 °C98 %1008.5 hPa16.1 kmWest (260°)5.6 km/hPartly Cloudy
7:58 AM26 °C24.8 °C93 %1009.5 hPa16.1 kmWest (260°)9.3 km/hClear
8:44 AM27 °C24 °C84 %1010.8 hPa16.1 kmWest (270°)11.1 km/hMostly Cloudy
8:49 AM27 °C25 °C89 %1010.8 hPa16.1 kmWest (270°)9.3 km/hMostly Cloudy
8:54 AM27 °C25 °C89 %1010.8 hPa16.1 kmWest (270°)11.1 km/hMostly Cloudy
8:58 AM26.8 °C24.5 °C87 %1010.2 hPa16.1 kmWest (280°)13 km/hMostly Cloudy
9:03 AM27 °C25 °C89 %1011.2 hPa16.1 kmWNW (290°)13 km/hMostly Cloudy
9:13 AM27 °C24 °C84 %1011.2 hPa16.1 kmWNW (290°)11.1 km/hMostly Cloudy
9:18 AM27 °C24 °C84 %1011.2 hPa16.1 kmWest (280°)11.1 km/hMostly Cloudy
9:58 AM29 °C24.2 °C75 %1010.2 hPa16.1 kmWest (270°)9.3 km/hScattered Clouds
10:13 AM29 °C24 °C74 %1011.2 hPa16.1 kmWest (280°)9.3 km/hMostly Cloudy
10:43 AM29 °C24 °C74 %1011.2 hPa16.1 kmWSW (250°)5.6 km/hMostly Cloudy
10:48 AM29 °C24 °C74 %1010.8 hPa16.1 kmWest (280°)13 km/hMostly Cloudy
10:58 AM29.1 °C23.6 °C72 %1009.8 hPa16.1 kmWest (260°)9.3 km/hScattered Clouds
11:08 AM29 °C24 °C74 %1010.8 hPa16.1 kmWest (280°)9.3 km/hMostly Cloudy
11:18 AM29 °C24 °C74 %1010.5 hPa16.1 kmWest (280°)5.6 km/hScattered Clouds
11:28 AM29 °C24 °C74 %1010.5 hPa16.1 kmVariable1.9 km/hMostly Cloudy
11:53 AM30 °C24 °C70 %1010.2 hPa16.1 kmESE (120°)9.3 km/hMostly Cloudy
11:58 AM29.8 °C23.7 °C70 %1009.5 hPa16.1 kmESE (120°)9.3 km/hMostly Cloudy
12:03 PM30 °C23 °C66 %1010.2 hPa16.1 kmESE (110°)7.4 km/hMostly Cloudy
12:08 PM30 °C23 °C66 %1010.2 hPa16.1 kmEast (90°)9.3 km/hMostly Cloudy
12:18 PM30 °C25 °C74 %1010.2 hPa16.1 kmEast (100°)9.3 km/hMostly Cloudy
12:28 PM29 °C23 °C70 %1009.8 hPa16.1 kmESE (110°)13 km/hMostly Cloudy
12:33 PM30 °C24 °C70 %1009.8 hPa16.1 kmEast (100°)13 km/hMostly Cloudy
12:58 PM28.3 °C25.3 °C84 %1008.5 hPa16.1 kmEast (90°)5.6 km/hMostly Cloudy
1:03 PM28 °C25 °C84 %1009.5 hPa16.1 kmESE (120°)9.3 km/hMostly Cloudy
1:18 PM28 °C25 °C84 %1009.1 hPa16.1 kmESE (110°)9.3 km/hMostly Cloudy
1:23 PM27 °C25 °C89 %1009.1 hPa16.1 kmESE (110°)9.3 km/hMostly Cloudy
1:28 PM27 °C25 °C89 %1009.1 hPa16.1 kmVariable5.6 km/hMostly Cloudy
1:48 PM27 °C25 °C89 %1008.8 hPa16.1 kmNorth (10°)9.3 km/hOvercast
1:58 PM26 °C23.9 °C88 %1007.8 hPa16.1 kmNNE (30°)7.4 km/hOvercast
1:59 PM25 °C23 °C89 %1008.8 hPa16.1 kmNNE (20°)9.3 km/hRainLight Rain
2:24 PM25 °C24 °C94 %1008.8 hPa6.4 kmVariable5.6 km/hRainLight Rain
2:29 PM24 °C22 °C89 %1008.8 hPa8 kmEast (90°)7.4 km/hRainLight Rain
2:39 PM26 °C24 °C89 %1008.5 hPa16.1 kmESE (120°)5.6 km/hRainLight Rain
2:42 PM26 °C24 °C89 %1008.5 hPa16.1 kmSE (130°)9.3 km/hPartly Cloudy
2:53 PM26 °C25 °C94 %1008.5 hPa16.1 kmSSE (160°)13 km/hRainLight Rain
2:58 PM26.4 °C25 °C92 %1007.5 hPa16.1 kmSSE (160°)11.1 km/h2.79 mmRainLight Rain
3:10 PM26 °C24 °C89 %1008.8 hPa16.1 kmSouth (180°)13 km/hMostly Cloudy
3:19 PM25 °C23 °C89 %1008.8 hPa16.1 kmSouth (170°)11.1 km/hLight Drizzle
3:28 PM26 °C25 °C94 %1008.5 hPa16.1 kmSSW (200°)9.3 km/hScattered Clouds
3:58 PM24 °C22.4 °C91 %1007.5 hPa16.1 kmSouth (180°)9.3 km/h0 mmClear
4:58 PM30 °C25 °C74 %1008.5 hPa16.1 kmWSW (250°)3.7 km/hMostly Cloudy
5:08 PM30 °C25 °C74 %1009.5 hPa16.1 kmWNW (290°)5.6 km/hScattered Clouds
5:58 PM28 °C24 °C79 %1008.8 hPa16.1 kmWNW (300°)7.4 km/hScattered Clouds
6:58 PM25 °C23.5 °C91 %1009.5 hPa16.1 kmNNW (330°)5.6 km/hClear
7:58 PM26 °C22.8 °C82 %1010.2 hPa16.1 kmNNW (340°)1.9 km/hClear
8:58 PM24.8 °C2 °C23 %1011.2 hPa16.1 kmCalmClear
9:58 PM24.1 °C23.3 °C95 %1011.2 hPa16.1 kmCalmClear
10:58 PM24.3 °C23.7 °C96 %1011.2 hPa16.1 kmCalmClear
11:58 PM23.8 °C23.2 °C96 %1010.5 hPa16.1 kmCalmClear
Hourly data recorded from PGUA, located 0 kilometers away from Pyga Beach, Guam







STORIES FROM OUR PARTNERS